TRA5964 EKCH-EHEH

Flight info

Callsign TRA5964
Flight time N/A
Altitude 36000
Route NEXEN T503 MICOS DCT NIE DCT DENOL DCT DOMEG DCT ROTEK
Aircraft B738/M-SDE2E3FGHIRWXY/LB1

Departure

Time N/A
Airport Copenhagen Kastrup Airport (EKCH)

Arrival

Time 2026-05-03 21:05
Airport Eindhoven Airport (EHEH)
Time Latitude Longitude Altitude Speed Heading
2026-05-03 20:15 54.21250 10.90951 33501 ft 415 kts 211°
2026-05-03 20:15 54.18766 10.88465 33817 ft 414 kts 211°
2026-05-03 20:15 54.16286 10.85979 34137 ft 412 kts 211°
2026-05-03 20:15 54.13819 10.83501 34394 ft 412 kts 212°
2026-05-03 20:16 54.11343 10.81011 34593 ft 413 kts 212°
2026-05-03 20:16 54.08864 10.78518 34827 ft 413 kts 212°
2026-05-03 20:16 54.06394 10.76036 35083 ft 412 kts 212°
2026-05-03 20:16 54.03951 10.73584 35326 ft 412 kts 212°
2026-05-03 20:17 54.01478 10.71106 35525 ft 412 kts 212°
2026-05-03 20:17 53.99001 10.68626 35713 ft 414 kts 212°
2026-05-03 20:17 53.96517 10.66143 35870 ft 415 kts 212°
2026-05-03 20:18 53.91510 10.61148 35886 ft 418 kts 212°
2026-05-03 20:18 53.86517 10.56183 35872 ft 413 kts 212°
2026-05-03 20:19 53.81580 10.51288 35884 ft 410 kts 212°
2026-05-03 20:19 53.76657 10.46418 35890 ft 409 kts 211°
2026-05-03 20:20 53.72575 10.42391 35882 ft 409 kts 211°
2026-05-03 20:20 53.67666 10.37559 35881 ft 408 kts 211°
2026-05-03 20:21 53.61946 10.31947 35883 ft 409 kts 211°
2026-05-03 20:21 53.57820 10.27909 35883 ft 409 kts 211°
2026-05-03 20:22 53.52890 10.23097 35877 ft 410 kts 211°
2026-05-03 20:22 53.47973 10.18310 35887 ft 411 kts 211°
2026-05-03 20:23 53.43018 10.13500 35885 ft 412 kts 211°
2026-05-03 20:23 53.38042 10.08682 35887 ft 413 kts 211°
2026-05-03 20:24 53.33061 10.03873 35892 ft 413 kts 211°
2026-05-03 20:24 53.28072 9.99068 35892 ft 414 kts 211°
2026-05-03 20:25 53.23081 9.94275 35899 ft 414 kts 211°
2026-05-03 20:25 53.18116 9.89520 35898 ft 414 kts 211°
2026-05-03 20:26 53.13087 9.84717 35900 ft 414 kts 211°
2026-05-03 20:26 53.08125 9.79991 35904 ft 413 kts 211°
2026-05-03 20:27 53.03137 9.75251 35906 ft 413 kts 211°
2026-05-03 20:27 52.98146 9.70523 35907 ft 412 kts 211°
2026-05-03 20:28 52.93162 9.65813 35910 ft 412 kts 211°
2026-05-03 20:28 52.88161 9.61100 35906 ft 412 kts 211°
2026-05-03 20:29 52.83213 9.56449 35907 ft 411 kts 210°
2026-05-03 20:29 52.78237 9.51784 35912 ft 411 kts 210°
2026-05-03 20:30 52.73257 9.47128 35923 ft 411 kts 210°
2026-05-03 20:30 52.68281 9.42485 35926 ft 411 kts 210°
2026-05-03 20:31 52.63295 9.37848 35925 ft 411 kts 211°
2026-05-03 20:31 52.58477 9.32786 35925 ft 410 kts 214°
2026-05-03 20:32 52.53775 9.27538 35926 ft 411 kts 214°
2026-05-03 20:32 52.49035 9.22273 35931 ft 411 kts 214°
2026-05-03 20:33 52.44280 9.17041 35937 ft 411 kts 214°
2026-05-03 20:33 52.39519 9.11832 35926 ft 412 kts 214°
2026-05-03 20:34 52.34751 9.06630 35938 ft 412 kts 214°
2026-05-03 20:34 52.29980 9.01440 35936 ft 412 kts 214°
2026-05-03 20:35 52.25212 8.96264 35939 ft 412 kts 214°
2026-05-03 20:35 52.20465 8.91125 35948 ft 412 kts 214°
2026-05-03 20:36 52.15680 8.85958 35939 ft 412 kts 214°
2026-05-03 20:36 52.10898 8.80807 35932 ft 412 kts 214°
2026-05-03 20:37 52.06118 8.75670 35936 ft 411 kts 214°
2026-05-03 20:37 52.01396 8.70507 35928 ft 411 kts 219°
2026-05-03 20:38 51.97634 8.63556 35935 ft 412 kts 235°
2026-05-03 20:38 51.95198 8.55116 35943 ft 415 kts 246°
2026-05-03 20:39 51.93095 8.46399 35947 ft 415 kts 246°
2026-05-03 20:39 51.90971 8.37698 35939 ft 415 kts 245°
2026-05-03 20:39 51.89895 8.33343 35775 ft 418 kts 245°
2026-05-03 20:40 51.88799 8.28940 35248 ft 422 kts 245°
2026-05-03 20:40 51.87713 8.24588 34603 ft 421 kts 244°
2026-05-03 20:40 51.86614 8.20196 33966 ft 421 kts 244°
2026-05-03 20:40 51.85516 8.15816 33203 ft 421 kts 244°
2026-05-03 20:41 51.84413 8.11429 32466 ft 421 kts 244°
2026-05-03 20:41 51.83315 8.07064 31972 ft 415 kts 244°
2026-05-03 20:41 51.82230 8.02758 31462 ft 411 kts 244°
2026-05-03 20:41 51.81158 7.98509 30964 ft 406 kts 244°
2026-05-03 20:42 51.80095 7.94308 30495 ft 402 kts 244°
2026-05-03 20:42 51.79040 7.90151 30021 ft 398 kts 244°
2026-05-03 20:42 51.77997 7.86045 29466 ft 394 kts 244°
2026-05-03 20:42 51.76961 7.81976 28953 ft 389 kts 244°
2026-05-03 20:43 51.75939 7.77969 28466 ft 384 kts 243°
2026-05-03 20:43 51.74928 7.74009 27985 ft 380 kts 244°
2026-05-03 20:43 51.73924 7.70085 27507 ft 376 kts 244°
2026-05-03 20:43 51.72928 7.66198 27033 ft 372 kts 244°
2026-05-03 20:44 51.71943 7.62362 26567 ft 369 kts 245°
2026-05-03 20:44 51.71149 7.58434 26102 ft 369 kts 252°
2026-05-03 20:44 51.70733 7.54358 25643 ft 370 kts 261°
2026-05-03 20:44 51.70539 7.50283 25195 ft 368 kts 261°
2026-05-03 20:45 51.70358 7.46186 24730 ft 365 kts 261°
2026-05-03 20:45 51.70178 7.42119 24290 ft 363 kts 261°
2026-05-03 20:45 51.69994 7.38068 23848 ft 361 kts 261°
2026-05-03 20:45 51.69806 7.34051 23360 ft 359 kts 261°
2026-05-03 20:46 51.69613 7.30037 22866 ft 356 kts 261°
2026-05-03 20:46 51.69420 7.26071 22401 ft 353 kts 262°
2026-05-03 20:46 51.69226 7.22142 21951 ft 350 kts 262°
2026-05-03 20:46 51.69031 7.18243 21507 ft 348 kts 262°
2026-05-03 20:47 51.68836 7.14377 21069 ft 345 kts 262°
2026-05-03 20:47 51.68641 7.10536 20639 ft 342 kts 262°
2026-05-03 20:47 51.68446 7.06731 20216 ft 340 kts 262°
2026-05-03 20:47 51.68251 7.02948 19796 ft 337 kts 262°
2026-05-03 20:48 51.68056 6.99193 19385 ft 335 kts 262°
2026-05-03 20:48 51.67862 6.95465 18968 ft 333 kts 263°
2026-05-03 20:48 51.67667 6.91753 18554 ft 331 kts 263°
2026-05-03 20:48 51.67472 6.88066 18130 ft 330 kts 263°
2026-05-03 20:49 51.67280 6.84440 17672 ft 328 kts 263°
2026-05-03 20:49 51.67085 6.80793 17235 ft 326 kts 263°
2026-05-03 20:49 51.66890 6.77159 16827 ft 323 kts 263°
2026-05-03 20:49 51.66696 6.73560 16410 ft 321 kts 263°
2026-05-03 20:50 51.66501 6.69977 15994 ft 320 kts 263°
2026-05-03 20:50 51.66308 6.66431 15600 ft 318 kts 263°
2026-05-03 20:50 51.66113 6.62889 15201 ft 316 kts 263°
2026-05-03 20:50 51.65919 6.59376 14806 ft 315 kts 263°
2026-05-03 20:51 51.65725 6.55872 14409 ft 313 kts 263°
2026-05-03 20:51 51.65530 6.52384 14021 ft 312 kts 263°
2026-05-03 20:51 51.65335 6.48911 13612 ft 312 kts 263°
2026-05-03 20:51 51.65140 6.45447 13176 ft 310 kts 263°
2026-05-03 20:52 51.64944 6.41987 12758 ft 309 kts 263°
2026-05-03 20:52 51.64750 6.38588 12372 ft 307 kts 263°
2026-05-03 20:52 51.64555 6.35175 11988 ft 305 kts 263°
2026-05-03 20:52 51.64359 6.31777 11602 ft 304 kts 263°
2026-05-03 20:53 51.64163 6.28386 11226 ft 303 kts 263°
2026-05-03 20:53 51.63966 6.25008 10831 ft 303 kts 263°
2026-05-03 20:53 51.63770 6.21636 10463 ft 303 kts 263°
2026-05-03 20:53 51.63576 6.18310 10331 ft 294 kts 262°
2026-05-03 20:54 51.63385 6.15077 10185 ft 286 kts 262°
2026-05-03 20:54 51.62883 6.08955 9922 ft 269 kts 251°
2026-05-03 20:54 51.62246 6.06135 9601 ft 268 kts 247°
2026-05-03 20:55 51.61363 6.03528 9289 ft 266 kts 228°
2026-05-03 20:55 51.60019 6.01515 9034 ft 263 kts 219°
2026-05-03 20:55 51.58573 5.99725 8734 ft 263 kts 218°
2026-05-03 20:55 51.57111 5.97957 8432 ft 262 kts 218°
2026-05-03 20:56 51.55664 5.96185 8139 ft 261 kts 218°
2026-05-03 20:56 51.54226 5.94403 7847 ft 261 kts 218°
2026-05-03 20:56 51.52792 5.92616 7551 ft 260 kts 218°
2026-05-03 20:56 51.51367 5.90839 7266 ft 260 kts 219°
2026-05-03 20:57 51.49962 5.89017 6976 ft 258 kts 223°
2026-05-03 20:57 51.48686 5.86990 6680 ft 257 kts 226°
2026-05-03 20:57 51.47464 5.84918 6392 ft 255 kts 231°
2026-05-03 20:57 51.46706 5.82373 6076 ft 255 kts 258°
2026-05-03 20:58 51.46712 5.79538 5806 ft 257 kts 279°
2026-05-03 20:58 51.47392 5.76876 5535 ft 263 kts 302°
2026-05-03 20:58 51.48577 5.74647 5290 ft 269 kts 310°
2026-05-03 20:58 51.49891 5.72502 5004 ft 269 kts 311°
2026-05-03 20:59 51.51205 5.70366 4722 ft 267 kts 311°
2026-05-03 20:59 51.52499 5.68231 4438 ft 265 kts 311°
2026-05-03 20:59 51.53767 5.66119 4196 ft 259 kts 310°
2026-05-03 20:59 51.54971 5.64059 3934 ft 247 kts 306°
2026-05-03 21:00 51.55977 5.61910 3703 ft 234 kts 302°
2026-05-03 21:00 51.56295 5.61191 3613 ft 231 kts 302°
2026-05-03 21:00 51.57791 5.57825 3249 ft 213 kts 302°
2026-05-03 21:00 51.58563 5.55865 3023 ft 201 kts 287°
2026-05-03 21:01 51.58516 5.53785 2852 ft 183 kts 240°
2026-05-03 21:01 51.57697 5.52319 2695 ft 172 kts 224°
2026-05-03 21:01 51.56832 5.51059 2503 ft 166 kts 223°
2026-05-03 21:01 51.55978 5.49866 2336 ft 157 kts 220°
2026-05-03 21:02 51.55133 5.48836 2188 ft 150 kts 217°
2026-05-03 21:02 51.54277 5.47854 2079 ft 155 kts 217°
2026-05-03 21:02 51.53397 5.46863 1884 ft 154 kts 216°
2026-05-03 21:02 51.52541 5.45903 1709 ft 144 kts 216°
2026-05-03 21:03 51.51735 5.44998 1484 ft 140 kts 216°
2026-05-03 21:03 51.50933 5.44099 1302 ft 141 kts 216°
2026-05-03 21:03 51.50123 5.43206 1093 ft 141 kts 216°
2026-05-03 21:03 51.49327 5.42305 913 ft 142 kts 216°
2026-05-03 21:04 51.48517 5.41392 724 ft 142 kts 214°
2026-05-03 21:04 51.47718 5.40486 547 ft 143 kts 214°
2026-05-03 21:04 51.46895 5.39562 366 ft 144 kts 213°
2026-05-03 21:04 51.46063 5.38624 149 ft 147 kts 213°
2026-05-03 21:05 51.45263 5.37733 67 ft 117 kts 216°
2026-05-03 21:05 51.44767 5.37179 71 ft 37 kts 214°
2026-05-03 21:05 51.44725 5.37105 74 ft 6 kts 281°
2026-05-03 21:05 51.44750 5.37051 72 ft 7 kts 313°
2026-05-03 21:06 51.44783 5.36995 74 ft 7 kts 315°
2026-05-03 21:06 51.44827 5.36969 74 ft 7 kts 13°
2026-05-03 21:06 51.44879 5.37022 72 ft 13 kts 35°
2026-05-03 21:06 51.44976 5.37131 70 ft 21 kts 35°
2026-05-03 21:07 51.45104 5.37275 74 ft 23 kts 35°
2026-05-03 21:07 51.45232 5.37418 68 ft 22 kts 35°
2026-05-03 21:07 51.45357 5.37558 71 ft 21 kts 34°
2026-05-03 21:07 51.45478 5.37693 72 ft 21 kts 35°
2026-05-03 21:08 51.45595 5.37824 70 ft 20 kts 35°
2026-05-03 21:08 51.45673 5.37911 74 ft 22 kts 35°
2026-05-03 21:08 51.45802 5.38057 68 ft 23 kts 35°
2026-05-03 21:08 51.45928 5.38198 67 ft 20 kts 35°
2026-05-03 21:09 51.45994 5.38275 70 ft 6 kts 54°
2026-05-03 21:09 51.45984 5.38344 74 ft 7 kts 122°
2026-05-03 21:09 51.45942 5.38439 72 ft 13 kts 126°
2026-05-03 21:09 51.45885 5.38567 70 ft 15 kts 125°
2026-05-03 21:10 51.45826 5.38701 65 ft 14 kts 125°
2026-05-03 21:10 51.45788 5.38816 68 ft 10 kts 81°
2026-05-03 21:10 51.45841 5.38889 69 ft 11 kts 35°
2026-05-03 21:10 51.45908 5.38964 68 ft 9 kts 34°
2026-05-03 21:11 51.45921 5.39012 70 ft 5 kts 98°
2026-05-03 21:11 51.45905 5.39060 68 ft 3 kts 124°
2026-05-03 21:11 51.45895 5.39084 69 ft 2 kts 125°
2026-05-03 21:11 51.45889 5.39097 71 ft 1 kts 125°
2026-05-03 21:12 51.45889 5.39099 71 ft 0 kts 125°